Flag for Germany Weather past 2 weeks in Bonn, North Rhine-Westphalia, Germany

Now
41 °F

Passing clouds.


Feels Like: 36 °F
Forecast: 41 / 45 °F
Wind: 8 mph from West

Location: Bonn-Hangelar

Current Time: Dec 19, 2014 at 9:39:57 PM

Latest Report: Dec 19, 2014 at 9:00 PM


Visibility: 28 mi

Pressure: 30.13 "Hg

Humidity: 92%

Dew point: 38 °F

Location of BonnLocation

Historic Weather in Bonn — Graph

°F

Bonn temperature yesterday

Maximum temperature yesterday: 53 °F (at 6:00 PM)
Minimum temperature yesterday: 49 °F (at 1:00 AM)
Average temperature yesterday: 51 °F

Past Weeks' High & Low Weather Summary

 TemperatureHumidityPressure
High53 °F (Dec 18, 6:00 PM)100% (Dec 6, 2:00 AM)30.40 "Hg (Dec 6, 2:00 AM)
Low32 °F (Dec 8, 7:00 PM)73% (Dec 10, 3:00 AM)29.41 "Hg (Dec 12, 4:00 PM)
Average40 °F94%29.98 "Hg
* Reported Dec 4 8:00 PM — Dec 19 8:00 PM, Bonn, Weather by CustomWeather, © 2014

Note: Actual official high and low records may vary slightly from our data, if they occured in-between our weather recording intervals... More about our weather records

Advertising

Bonn weather history for previous 24 hours

 ConditionsComfort  
Time TempWeatherWind HumidityBarometerVisibility
8:00 PM
Dec 19
41 °FPassing clouds.8 mph90%30.10 "Hg28 mi
7:00 PM42 °FPassing clouds.8 mph89%30.06 "Hg28 mi
6:00 PM43 °FPassing clouds.7 mph91%30.03 "Hg28 mi
5:00 PM44 °FLow clouds.7 mph93%30.00 "Hg25 mi
4:00 PM45 °FDrizzle. Low clouds.6 mph98%29.98 "Hg7 mi
3:00 PM45 °FLight rain. Low clouds.7 mph98%29.95 "Hg12 mi
2:00 PM50 °FRain. Low clouds.13 mph96%29.90 "Hg2 mi
1:00 PM50 °FRain. Low clouds.13 mph94%29.87 "Hg14 mi
12:00 PM50 °FLight rain. Low clouds.14 mph95%29.88 "Hg5 mi
11:00 AM50 °FLight rain. Low clouds.14 mph94%29.88 "Hg6 mi
10:00 AM50 °FRain. Low clouds.15 mph94%29.88 "Hg2 mi
9:00 AM50 °FRain. Low clouds.14 mph94%29.88 "Hg3 mi
8:00 AM49 °FRain. Low clouds.13 mph95%29.88 "Hg5 mi
7:00 AM50 °FOvercast.14 mph92%29.90 "Hg31 mi
6:00 AM50 °FOvercast.13 mph93%29.91 "Hg31 mi
5:00 AM51 °FDrizzle. Overcast.14 mph91%29.92 "Hg37 mi
4:00 AM51 °FLow clouds.13 mph91%29.94 "Hg22 mi
3:00 AM51 °FPassing clouds.13 mph89%29.95 "Hg31 mi
2:00 AM51 °FDrizzle. Low clouds.14 mph92%29.96 "Hg8 mi
1:00 AM52 °FDrizzle. Low clouds.14 mph90%29.96 "Hg12 mi
12:00 AM51 °FDrizzle. Low clouds.14 mph94%29.96 "Hg12 mi
11:00 PM
Dec 18
51 °FDrizzle. Low clouds.13 mph95%29.96 "Hg6 mi
10:00 PM52 °FDrizzle. Low clouds.13 mph93%29.95 "Hg8 mi
9:00 PM51 °FLow clouds.14 mph93%29.94 "Hg16 mi
Weather by CustomWeather, © 2014

See weather overviewHow to use our weather pages